Weather in Inyushka

Russia / Kemerovo Oblast     54°36′11″N   86°48′03″E
temp.,
°C
wind,
m/s
gust,
m/s
humid.,
%
clouds,
%
prec.,
mm/h
press.,
hPa
HPBL,
m
29 november, mon
mon2901:00−9s4895100 0.4 1039212
04:00−10s4895100 0.3 1039185
07:00−9s4894100 0.4 1039214
10:00−9sse4892100 0.1 1038221
13:00−8sse378972 0.1 1037222
16:00−9sse359199 0.0 103680
19:00−11sse3592100 0.0 103561
22:00−13sse2489100 0.0 103540
30 november, tue
tue3001:00−13sse2489100 0.0 103441
04:00−13sse2489100 0.0 103342
07:00−13sse3590100 0.0 103256
10:00−12sse369174 0.0 103270
13:00−8sse368993 0.0 1031137
16:00−8sse369199 0.0 103082
19:00−10sse369237 0.0 103068
22:00−11sse368992 0.0 103060
1 december, wed
wed101:00−12sse378456 0.0 103068
04:00−12sse37855 0.0 103081
07:00−14sse23895 0.0 103125
10:00−14sse359012 0.0 103261
13:00−9sse3887100 0.0 1031161
16:00−9se239091 0.0 103143
19:00−9sse488588 0.0 1030102
22:00−10sse488769 0.0 103086
2 december, thu
thu201:00−10sse358436 0.0 102959
04:00−12sse3486100 0.0 102939
07:00−11sse3585100 0.0 102851
10:00−12se3691100 0.0 102861
13:00−7se3685100 0.0 1027110
16:00−8ese2288100 0.0 102617
19:00−8sse3687100 0.0 102569
22:00−10se348888 0.0 102449
3 december, fri
fri301:00−11se338833 0.0 102340
04:00−10sse388442 0.0 102185
07:00−8sse41076100 0.0 1017126
10:00−6sse41373100 0.0 1015181
13:00−1s51572100 0.0 1012325
16:00+2ssw81761100 0.0 1010530
19:000sw81692100 0.2 1012931
22:000wsw71394100 0.3 10161171